Weather - Helsinki Query any day in the database

Current weather  

Weather data for a selected day (2006-01-01 -2020-10-31)
Enter date:     <-     scroll days         ->
day curves
Low temperature°C +15.003:50
High temperature°C +29.016:20
Low wind chill°C 14.903:50
Average temperature°C +23.0 
High wind speed (10 min) m/s 10.320:50
Low pressurehPa 1020.023:50
High pressurehPa 1026.003:20
Low R.H% 4119:50
High R.H% 9303:50
Day weather data as a table
Date Time Temp
°C
Chill
°C
Pressure
hPA
Wind
m/s
Hum
%
Precip
mm
2015-07-03 23:50:00 18.0  17.4  1020.0 5.8 67 -
2015-07-03 23:20:00 19.0  18.7  1020.0 5.8 59 -
2015-07-03 22:50:00 20.0  19.8  1020.0 6.7 59 -
2015-07-03 22:20:00 20.0  19.7  1021.0 7.6 56 -
2015-07-03 21:50:00 21.0  ....  1021.0 5.8 56 -
2015-07-03 21:20:00 22.0  ....  1021.0 9.8 49 -
2015-07-03 20:50:00 22.0  ....  1021.0 10.3 46 -
2015-07-03 20:20:00 23.0  ....  1022.0 8.9 43 -
2015-07-03 19:50:00 24.0  ....  1022.0 9.8 41 -
2015-07-03 19:20:00 25.0  ....  1022.0 8.9 44 -
2015-07-03 18:50:00 26.0  ....  1022.0 8.9 44 -
2015-07-03 18:20:00 26.0  ....  1022.0 10.3 47 -
2015-07-03 17:50:00 27.0  ....  1022.0 10.3 44 -
2015-07-03 17:20:00 28.0  ....  1022.0 10.3 45 -
2015-07-03 16:20:00 29.0  ....  1022.0 9.8 45 -
2015-07-03 15:50:00 29.0  ....  1022.0 9.4 42 -
2015-07-03 15:20:00 29.0  ....  1022.0 8.0 45 -
2015-07-03 14:50:00 29.0  ....  1022.0 8.0 45 -
2015-07-03 14:20:00 29.0  ....  1023.0 8.9 45 -
2015-07-03 13:50:00 29.0  ....  1023.0 9.8 45 -
2015-07-03 13:20:00 29.0  ....  1023.0 7.2 45 -
2015-07-03 12:50:00 28.0  ....  1023.0 9.4 48 -
2015-07-03 12:20:00 28.0  ....  1023.0 6.7 48 -
2015-07-03 11:50:00 28.0  ....  1023.0 7.6 48 -
2015-07-03 11:20:00 27.0  ....  1023.0 8.0 50 -
2015-07-03 10:50:00 26.0  ....  1024.0 8.0 54 -
2015-07-03 10:20:00 26.0  ....  1024.0 7.2 54 -
2015-07-03 09:50:00 25.0  ....  1024.0 6.3 57 -
2015-07-03 09:20:00 24.0  ....  1024.0 5.4 60 -
2015-07-03 08:50:00 24.0  ....  1024.0 6.3 57 -
2015-07-03 08:20:00 23.0  ....  1024.0 4.0 64 -
2015-07-03 07:50:00 21.0  ....  1024.0 4.0 68 -
2015-07-03 07:20:00 20.0  20.0  1024.0 3.1 72 -
2015-07-03 06:50:00 19.0  19.0  1024.0 3.1 72 -
2015-07-03 06:20:00 18.0  18.0  1025.0 3.1 77 -
2015-07-03 05:50:00 17.0  16.7  1025.0 3.6 82 -
2015-07-03 04:50:00 16.0  15.8  1025.0 2.7 87 -
2015-07-03 04:20:00 16.0  15.8  1025.0 2.7 87 -
2015-07-03 03:50:00 15.0  14.9  1025.0 2.2 93 -
2015-07-03 03:20:00 16.0  15.8  1026.0 2.7 87 -
2015-07-03 02:20:00 17.0  17.0  1026.0 2.7 82 -
2015-07-03 01:50:00 17.0  17.0  1026.0 2.2 82 -
2015-07-03 01:20:00 17.0  17.0  1026.0 2.7 82 -
2015-07-03 00:50:00 18.0  18.0  1026.0 3.1 77 -
Unit conversions: